STARLINK-4347, 53076

Orbit data source: Space-Track

STARLINK-4347, 53076 is a payload satellite owned by SpaceX/Seattle (US) in SSO that was launched on Mon, 11 Jul 2022 UTC via an FALCON 9 launch vehicle from the Air Force Western Test Range (AFWTR). Payload-class satellites include a variety of spacecraft equipped with specific instruments for various scientific and technological missions. These include communications satellites like Starlink; space stations such as the ISS; scientific satellites like the Hubble; Earth observation satellites from companies like Planet Labs, Umbra, and HawkEye 360; GPS; miniature CubeSats for education and research; and military/defense satellites.

Loading next visibility...
Identifier
53076, 2022-077AK
Orbit
SSO
Country
Flag of USUS
Related business
Manufacturer
SpaceX/Seattle
Mission
Operational Commercial Communications
Bus & Motor
STARLINK, Unknown motor
Mass
297 kg wet, ~275 kg dry
Launch date (UTC)
2022-07-11 (4 years ago)
Launch vehicle
FALCON 9
Launch site
Air Force Western Test Range (AFWTR)
Object type
Payload
Rocket body
Debris
Shape & HBR
Box + 1 Pan, 10.1 m
Radar Cross Section
13.562 m², Large (>1 m²)

Expand to show TLE details & history
Last TLE update: 2 days ago

TLE from 2 days ago
0 STARLINK-4347
1 53076U 22077AK  26171.46946980 -.00001861  00000-0 -12502-3 0  9993
2 53076  97.3376 350.2762 0001113 136.3738 223.7578 15.05660910216376
Epoch: 2026-06-20T11:16Z
TLE epoch observation values (Epoch: 2026-06-20T11:16:02.190Z)
Latitude
-0.00001°
Longitude
-87.41657°
Altitude
553.108 km
Speed
7.585 km/s
True Right ascension
23h 21m 06s
True Declination
0° 00' 00"
Sunlit
Object was in daylight at epoch
Visualization orbit readout
Latitude
Unknown
Longitude
Unknown
Altitude
Unknown
Speed
Unknown
Apparent Right ascension
Unknown
Apparent Declination
Unknown
Sunlit
N/A
Visualization observer readout
Local Sidereal Time
21:59:02
Azimuth
Unknown
Elevation
Unknown
Doppler factor
Unknown
Orbital elements
Apogee altitude
547.23 km
Perigee altitude
545.689 km
Semi-major axis
6,924.597 km
Eccentricity
0.00011
Inclination
97.3376°
RAAN
350.2762°
Arg. of periapsis
136.3738°
True anomaly
223.74898°
Mean anomaly
223.7578°
Eccentric anomaly
223.75339°
Mean motion
3.76662 °/min
Orbital period
95.58 mins
BSTAR
-0.00012502
Loading maneuver chart data...
Computing Atmospheric mass density...
Loading historical data...
Loading historical data...
Loading historical data...
Loading historical data...
Loading historical data...
Loading historical data...
Loading historical data...

Documentation

Showing up to 5 results
|